Theta_e
333 333 333 332 331 330 330 330 328 328 329 329 329 329 328 328 328 327 326 326 326 326 325 325 325 324 324 324 325 326 326 328 328 327 327 329 329 329 329 329 328 328 329 327 328 328 328 329 329 327 327 327 326 326 324 324 323 321 319 317 316 316 315 316 316 315 316 315 314 312 311 311 312 312 312 312 309 308 310 312 312 311 309 308 308
332 332 331 330 330 330 330 330 329 328 329 328 329 329 328 328 327 327 326 325 325 325 325 325 324 323 323 323 324 325 325 326 327 327 327 328 329 328 328 327 326 326 327 326 327 329 329 329 329 328 328 327 326 324 323 323 321 319 318 316 315 316 316 316 316 316 317 316 316 314 312 311 312 312 312 312 311 309 310 311 312 311 309 309 309
330 330 331 331 330 330 329 328 328 329 329 329 329 328 328 328 327 326 326 325 325 325 324 323 322 322 323 323 324 325 325 326 327 326 326 326 326 326 326 325 324 325 326 325 326 329 330 328 329 329 328 327 325 323 322 321 320 318 317 316 315 316 317 316 316 317 317 317 317 315 314 313 313 313 313 312 312 311 310 311 312 312 311 310 310
328 330 331 331 330 330 329 328 329 329 328 329 329 328 328 327 326 326 326 324 324 324 322 321 321 323 323 324 324 325 325 326 326 325 324 324 324 324 324 324 324 324 324 323 323 325 326 326 328 330 328 327 326 323 321 320 319 317 317 317 316 315 316 316 316 317 317 317 317 316 315 315 314 314 314 313 313 313 312 311 312 313 312 312 311
328 330 330 329 329 330 329 328 329 329 328 328 329 328 327 326 326 326 325 325 323 322 320 320 321 322 323 323 323 324 324 324 324 323 323 323 322 322 322 323 323 323 322 321 320 322 323 323 326 329 329 328 326 323 321 320 319 317 316 317 317 316 316 316 316 317 317 317 316 315 315 316 315 315 314 314 313 314 314 313 313 313 313 313 313
328 329 328 329 330 330 329 328 328 328 327 328 328 328 327 326 326 326 325 324 322 321 320 319 320 321 322 321 321 321 322 323 323 323 323 323 322 321 322 322 322 321 321 320 320 321 322 321 323 325 327 328 327 324 322 320 319 318 317 317 317 317 317 317 317 317 317 317 316 316 315 316 315 315 315 314 314 314 314 314 314 314 314 314 313
327 327 329 330 331 330 328 328 327 327 328 328 328 327 327 326 326 325 324 322 321 320 319 319 319 320 320 320 320 320 320 320 321 322 323 323 323 322 322 322 321 321 320 320 320 321 321 322 322 322 324 325 326 325 323 321 320 319 318 318 318 317 318 318 318 318 317 317 317 317 317 316 316 316 316 315 315 315 315 315 315 314 313 314 313
327 329 331 331 331 330 328 327 327 327 328 327 327 327 326 325 325 324 322 321 320 319 318 318 319 320 320 320 319 319 320 320 320 320 321 321 322 322 322 322 321 321 321 320 321 321 321 321 321 322 322 323 323 324 324 323 322 321 320 320 319 319 319 318 318 318 318 318 318 317 318 317 316 316 316 315 315 315 315 314 314 314 314 314 314
329 331 332 331 330 330 329 328 328 327 327 327 326 326 325 324 322 321 321 319 318 318 317 317 318 320 320 319 319 321 321 319 318 319 319 319 321 321 322 322 322 321 321 321 321 321 320 321 321 321 322 322 323 324 324 323 323 322 321 321 320 319 319 319 318 318 318 318 318 318 318 318 317 317 316 316 316 316 315 315 315 315 314 314 314
330 331 330 330 330 330 329 328 327 327 326 326 326 326 324 322 321 320 320 319 319 318 317 317 317 318 318 320 322 321 318 316 315 317 318 318 320 320 321 321 321 321 321 320 320 320 319 320 321 319 318 318 319 320 320 321 321 321 321 321 321 320 320 319 319 318 318 318 318 318 317 317 317 317 316 316 316 316 316 316 315 315 315 315 315
329 328 327 327 328 328 327 327 327 327 326 326 325 324 323 321 322 322 321 320 320 319 318 318 318 318 319 321 319 316 313 313 313 314 316 318 320 320 320 320 320 320 319 319 319 319 318 319 320 318 315 316 316 316 315 316 316 316 317 318 320 320 319 319 319 319 319 318 318 318 318 317 317 316 316 316 316 316 316 316 316 316 316 315 316
326 325 324 325 325 325 325 324 324 324 324 323 322 321 320 321 323 323 323 322 321 321 321 320 320 321 320 318 314 312 312 312 312 312 313 314 316 318 320 320 320 319 319 319 319 318 317 319 320 318 317 318 318 317 316 315 315 313 313 314 315 316 316 316 316 318 318 319 319 318 317 317 317 317 316 316 316 316 316 316 316 316 316 316 316
320 319 320 320 321 321 321 321 321 320 320 319 318 318 319 320 321 322 322 323 323 323 322 322 321 319 317 314 312 312 312 312 312 313 313 312 313 316 319 319 318 319 319 319 320 320 319 320 320 320 319 318 318 318 318 319 318 317 314 313 312 312 312 312 312 314 315 317 319 320 319 318 318 317 317 316 317 317 318 318 317 317 316 316 316
315 315 315 316 317 318 318 318 318 317 317 316 316 317 317 318 318 318 318 320 322 322 320 319 317 315 313 312 313 313 313 314 313 313 313 313 313 315 319 320 319 320 320 320 321 322 321 321 321 320 321 320 319 318 320 321 321 321 320 317 316 315 314 313 313 312 312 313 316 318 320 320 320 319 319 319 319 318 319 320 319 319 317 317 317
311 312 312 313 313 314 316 316 315 315 316 315 315 315 315 315 316 316 316 317 318 318 317 316 314 312 311 311 312 312 313 314 315 315 314 314 314 316 320 321 320 321 322 322 322 322 322 322 321 321 322 323 322 321 321 321 320 321 322 321 320 320 319 318 317 316 315 314 314 316 317 318 319 320 320 320 320 320 320 320 320 319 319 319 319
308 309 309 310 310 310 312 313 313 313 314 314 313 312 312 313 313 313 314 314 315 316 315 315 314 313 311 310 309 309 310 312 313 315 316 316 316 318 320 320 321 322 323 323 322 322 323 323 323 323 323 323 323 322 321 320 319 321 322 321 321 321 320 320 320 319 319 318 317 317 317 318 318 318 319 319 320 321 321 320 320 319 319 320 320
305 306 306 307 308 308 310 310 310 310 311 311 310 309 309 309 309 310 311 311 311 312 312 312 312 312 312 311 307 305 305 308 309 311 314 316 317 318 318 319 320 321 322 322 322 322 323 322 320 322 323 323 323 322 321 321 320 321 323 322 322 322 322 321 321 320 320 321 320 319 318 318 318 317 317 317 318 320 320 320 320 319 319 319 320
303 303 304 305 306 306 307 308 308 308 308 308 308 308 308 307 307 308 308 308 307 307 308 308 308 309 309 309 308 305 303 302 303 305 307 310 313 315 315 316 318 319 319 319 319 320 321 318 316 317 319 319 319 318 318 317 316 317 321 322 323 323 323 323 323 322 321 320 320 319 319 319 319 318 317 316 316 317 318 319 320 320 319 318 318
301 301 302 303 304 304 305 305 306 306 306 306 306 306 306 306 306 306 307 306 306 305 305 306 305 304 303 303 305 306 303 300 299 300 300 302 304 308 311 313 314 315 315 314 315 316 317 316 313 312 311 310 310 310 310 309 309 310 313 316 320 321 322 322 322 322 321 320 319 319 319 319 320 320 319 317 316 316 316 316 317 319 320 319 318
300 300 301 301 302 303 303 303 303 304 304 305 305 305 306 306 306 306 306 306 306 305 306 305 305 304 303 302 303 304 303 301 301 300 300 300 299 302 308 311 309 309 309 309 309 310 312 314 313 311 309 307 306 305 304 303 302 302 303 306 311 316 317 317 317 317 318 320 320 320 319 320 320 320 319 318 317 317 316 316 316 317 318 319 319
299 299 300 301 301 302 302 302 302 302 303 303 304 304 305 306 306 307 307 306 306 306 306 306 305 305 304 304 304 304 303 304 304 301 300 300 299 300 304 306 303 302 304 306 306 307 308 311 311 310 308 307 306 305 303 300 299 298 298 300 302 304 305 306 306 307 309 313 317 319 319 319 319 319 319 319 318 318 318 317 317 316 316 317 318
299 299 299 299 300 301 301 301 302 302 303 303 303 304 304 305 305 306 306 307 306 306 306 306 306 304 303 302 302 301 301 301 301 298 297 298 298 298 299 299 298 298 300 303 305 306 306 308 307 306 306 305 304 302 300 298 298 298 298 298 298 298 298 298 299 301 304 307 311 314 316 317 318 318 319 319 318 318 318 318 317 317 316 316 317
300 300 300 300 300 300 301 301 302 302 303 303 303 303 304 304 304 305 306 306 307 307 306 306 306 306 305 305 304 303 302 302 300 298 297 297 297 296 296 296 296 297 297 298 300 302 303 305 305 304 302 301 299 298 297 297 297 297 297 297 297 297 298 297 297 300 303 306 306 308 310 313 314 316 317 317 317 317 317 317 317 316 316 315 315
301 301 301 301 301 301 301 301 301 302 302 302 303 303 303 303 304 304 305 305 306 306 306 305 306 307 307 307 306 305 305 304 302 301 299 298 298 297 297 297 296 296 296 297 299 300 302 303 303 302 300 298 297 297 297 296 297 297 297 298 298 297 297 297 297 298 302 304 305 305 306 307 309 310 312 313 314 314 315 315 315 315 315 315 314
302 302 302 302 302 301 301 301 301 301 301 301 302 302 303 303 303 303 304 304 304 305 304 304 305 305 305 306 305 304 304 304 303 302 300 299 299 299 299 299 298 298 298 299 300 301 301 301 300 299 297 297 297 297 298 298 299 300 300 300 300 299 299 299 299 300 302 304 305 306 306 306 307 308 309 310 311 312 312 312 314 314 314 313 312
302 302 302 302 301 301 302 301 301 301 301 301 301 301 302 302 302 303 303 303 303 303 303 303 303 303 304 304 304 303 303 304 304 302 300 299 299 299 299 300 300 300 300 301 301 300 300 300 299 297 297 298 299 300 300 301 302 302 303 304 303 303 302 303 304 304 305 306 307 307 308 308 308 309 309 309 310 311 311 312 313 312 311 310 309
302 302 302 301 301 301 301 301 302 302 301 302 302 302 302 302 301 302 302 303 303 303 302 303 303 304 304 304 304 304 304 304 303 301 299 298 298 299 299 300 301 301 301 301 300 300 299 298 298 298 299 300 301 302 303 304 304 304 305 305 305 305 305 306 306 306 307 307 307 307 307 307 308 308 309 309 309 310 311 311 312 311 309 307 307
302 302 302 302 301 301 301 301 302 302 301 301 301 301 301 302 302 301 299 299 301 302 303 304 303 303 304 304 303 304 304 303 300 298 297 297 297 297 298 299 299 300 300 299 298 298 298 298 300 301 302 302 302 303 304 304 305 304 304 304 304 305 305 305 306 306 306 306 305 305 306 306 307 308 308 308 308 309 310 310 309 309 307 305 304
302 301 301 301 301 301 301 301 302 302 302 301 299 298 298 300 301 300 297 296 296 298 300 301 300 301 302 303 302 303 303 300 297 296 297 296 296 296 297 297 297 297 297 298 298 297 298 299 301 302 302 302 303 303 303 303 303 302 302 302 303 303 303 303 304 304 304 304 304 304 305 305 305 306 307 307 308 308 308 308 307 306 305 304 303
301 300 300 300 300 301 301 301 301 302 302 302 301 299 297 297 298 298 297 296 296 296 296 297 296 297 299 300 299 299 299 297 296 297 297 297 297 297 297 297 297 297 298 298 298 298 299 300 301 302 302 302 302 302 302 302 301 301 301 301 301 302 302 302 302 302 302 302 302 303 303 303 303 304 304 306 307 306 305 305 305 304 303 303 303
301 300 300 299 299 300 300 300 301 301 301 301 301 301 299 298 297 297 297 297 296 296 296 296 296 296 297 297 297 297 297 296 297 297 297 298 298 298 298 298 298 298 298 298 298 299 300 301 301 302 302 301 301 301 301 301 301 301 301 301 301 301 301 301 301 301 301 301 302 302 302 302 302 302 303 304 305 304 303 303 303 303 302 302 301
300 300 300 300 299 299 300 300 300 300 300 300 300 301 301 300 299 298 297 297 297 297 297 296 296 296 296 296 296 296 296 297 297 297 297 298 298 298 298 298 298 298 299 299 299 300 301 301 301 301 301 301 301 301 300 300 301 301 301 301 300 300 301 301 301 301 301 301 301 301 301 301 300 301 301 302 302 302 301 301 301 300 300 299 298
300 300 299 299 300 299 299 299 300 299 300 300 300 300 300 301 300 299 298 297 297 297 297 297 296 296 296 295 295 296 296 296 297 297 297 298 298 298 298 298 298 298 299 299 300 300 300 300 300 300 300 300 300 300 300 300 300 300 300 300 300 300 300 300 300 300 300 300 300 300 300 300 299 300 300 300 300 300 300 299 299 298 298 297 297
299 298 297 297 299 299 299 299 299 299 299 299 299 299 299 299 300 300 299 298 298 297 297 297 297 296 296 295 295 295 296 296 296 296 297 297 298 298 299 299 299 299 299 300 300 300 300 300 300 300 300 300 300 299 299 299 300 300 299 299 299 299 300 300 299 299 299 298 298 298 298 298 298 298 298 299 298 298 297 297 297 297 296 296 296
299 299 298 298 299 299 299 299 299 299 299 299 299 299 299 299 299 299 300 299 299 299 298 297 297 296 296 295 295 295 295 296 296 296 297 297 298 299 299 300 300 299 299 300 300 300 300 300 300 300 300 299 299 299 299 299 299 299 299 299 299 299 298 298 297 296 296 296 296 296 295 295 295 296 297 297 297 296 296 296 296 296 295 296 296
299 299 299 299 299 298 298 299 298 298 298 298 298 298 298 299 299 299 299 299 299 299 300 299 298 297 296 296 295 295 295 295 295 295 296 297 297 298 299 299 299 299 299 299 299 299 299 299 299 299 298 298 298 298 298 298 298 298 298 298 298 297 296 296 295 294 294 294 294 294 293 293 294 295 296 296 295 295 295 295 295 295 294 295 295
299 299 299 298 298 298 298 298 298 297 297 298 298 298 298 298 298 298 299 298 298 298 299 299 298 298 297 297 296 295 295 295 296 296 296 296 297 298 299 299 299 298 298 299 298 298 298 298 297 297 297 297 297 297 297 297 297 297 297 297 297 296 295 294 294 293 293 293 292 292 292 292 292 293 294 293 293 293 293 293 294 293 294 294 295
299 299 298 296 296 297 298 298 298 297 297 298 299 298 298 298 298 298 298 298 297 297 298 298 298 298 297 297 296 296 296 296 296 296 296 296 297 297 298 297 297 297 297 297 297 297 297 296 296 296 296 296 296 296 296 296 296 296 295 295 295 294 294 293 293 292 292 292 291 291 291 291 291 291 292 292 292 292 292 292 292 292 293 293 294
299 298 297 295 295 296 297 298 297 297 298 298 298 298 298 297 297 297 298 298 297 297 298 298 297 297 296 295 295 296 296 296 296 296 296 296 296 296 296 296 296 296 296 296 296 296 295 295 295 294 294 294 294 295 295 295 295 294 294 294 294 293 293 293 292 291 291 291 291 291 291 291 291 291 291 291 291 291 291 291 291 292 292 292 293
299 298 297 296 295 296 297 297 297 298 298 298 298 298 298 297 297 297 297 297 297 297 297 297 297 296 295 294 294 295 296 296 295 295 295 295 295 295 295 295 295 295 295 295 295 294 294 294 293 293 293 293 293 294 294 294 293 293 293 293 293 293 292 292 291 291 291 291 290 290 290 291 291 291 290 290 290 290 291 291 291 291 292 292 292
299 299 298 297 296 296 297 297 297 298 297 297 297 298 297 297 296 296 297 297 297 296 296 297 297 295 293 293 293 294 295 296 295 295 294 294 294 294 294 294 294 294 294 293 293 293 293 293 292 292 292 292 292 292 293 293 293 293 293 293 293 293 292 292 291 291 291 290 290 290 290 290 290 290 290 290 290 290 291 291 291 291 291 292 292
299 299 298 298 297 297 297 297 297 297 297 297 297 297 297 296 296 296 296 296 296 296 296 296 296 295 293 293 293 294 295 295 295 295 294 294 293 293 293 292 293 293 292 292 292 292 292 292 292 292 291 291 291 291 292 292 292 293 293 293 293 293 293 292 291 291 291 290 290 290 290 290 290 290 290 290 290 290 291 291 291 291 291 291 291
298 298 298 297 297 296 297 297 297 297 297 297 297 297 296 296 296 295 295 295 296 296 296 296 296 295 294 294 294 294 295 295 295 294 294 293 293 292 292 292 292 292 292 291 291 291 291 291 292 291 291 290 290 291 291 292 293 293 293 292 292 292 292 292 291 291 291 291 290 290 290 290 290 290 290 290 290 290 291 291 291 291 291 291 291
298 298 298 297 296 296 296 297 297 297 296 296 296 296 296 296 295 295 295 295 295 295 295 295 295 295 295 294 294 295 294 294 294 293 293 292 292 292 292 291 291 291 291 291 290 290 290 291 291 291 291 291 291 291 291 292 292 293 293 292 292 292 292 291 291 291 291 291 290 290 290 290 290 290 290 290 290 290 291 291 291 291 291 291 291
298 298 298 297 296 296 296 296 297 296 296 296 296 296 295 295 295 295 295 295 295 295 295 295 295 294 294 294 294 294 294 294 293 293 293 292 292 292 292 291 291 291 291 291 291 290 290 290 290 291 291 291 291 292 292 292 292 292 292 292 292 292 291 291 291 290 290 290 291 291 290 290 290 290 291 291 291 291 291 291 291 291 291 291 291
298 298 297 297 296 296 296 296 296 296 296 296 296 296 295 295 295 295 295 295 295 295 295 295 294 294 294 294 294 294 294 294 293 293 292 292 292 292 291 291 291 291 291 291 291 290 290 290 290 290 290 291 291 292 292 292 292 292 292 292 292 291 291 291 291 290 290 290 290 290 290 290 290 290 291 291 291 291 291 291 291 291 291 291 291
298 298 297 296 296 296 295 295 296 296 296 296 296 296 295 295 295 295 295 294 294 295 295 295 294 294 294 294 294 294 294 293 293 293 292 292 292 292 291 290 290 290 290 290 290 289 289 289 289 290 290 290 291 292 292 292 292 292 292 291 290 290 290 290 290 290 290 290 290 290 290 291 291 291 291 291 291 291 291 291 290 290 291 291 291
297 297 297 296 296 296 295 296 296 296 296 296 296 295 295 295 295 295 295 294 294 295 295 295 294 294 294 294 293 293 293 293 293 293 293 293 292 292 290 290 290 290 290 289 289 288 289 289 289 289 290 290 290 291 291 292 292 291 291 289 289 289 289 289 290 290 290 290 290 290 290 290 291 291 290 291 291 291 291 291 291 291 291 291 291
297 297 297 296 296 296 295 295 296 296 296 296 295 295 294 294 295 295 295 295 295 295 295 295 294 294 294 294 293 293 293 293 293 293 293 293 292 291 290 289 289 289 289 289 289 288 288 288 288 288 289 289 289 290 290 290 290 290 289 288 288 288 288 289 289 290 290 290 290 290 290 290 291 290 290 290 291 291 291 291 291 291 291 291 291
296 296 296 296 296 296 295 295 295 296 296 296 295 295 295 295 295 295 295 295 295 295 295 295 294 294 294 293 293 293 293 293 293 293 293 292 292 291 290 289 289 289 289 289 289 289 288 288 288 288 288 288 289 289 289 288 288 288 288 288 288 289 289 289 289 289 290 290 290 290 290 290 291 291 291 291 291 291 290 290 291 291 291 290 290
295 296 296 296 296 296 295 295 295 295 296 296 296 295 295 295 295 295 295 295 295 295 294 294 294 294 294 293 293 293 293 293 293 293 292 292 291 291 290 289 289 289 289 289 289 289 288 288 288 288 289 289 289 289 288 288 288 288 288 288 288 289 289 289 289 289 290 290 290 291 291 291 291 291 291 291 291 291 291 290 291 291 291 291 290
Wind_Speed
19 19 17 18 19 19 18 17 16 16 15 15 13 12 11 10 10 9 8 8 7 7 5 5 4 4 4 4 4 4 4 4 3 3 3 4 4 5 6 8 9 9 8 8 9 10 11 12 13 13 13 12 12 12 11 11 11 11 8 7 8 8 9 10 10 9 8 7 8 10 13 13 12 13 13 13 13 13 11 12 14 14 13 13 13
18 19 18 19 21 20 19 17 16 16 16 15 14 13 12 10 10 9 8 8 7 6 6 4 4 4 4 4 3 2 3 3 3 3 3 3 3 3 4 5 5 5 5 6 8 9 11 13 13 13 13 12 12 12 12 12 12 11 9 8 11 11 11 11 14 12 9 9 8 9 12 12 12 13 13 13 13 14 13 13 14 14 13 14 15
18 20 20 20 21 20 20 18 17 16 16 15 14 14 12 11 10 9 8 7 7 6 5 5 4 5 4 4 3 2 2 3 3 3 3 3 3 3 3 4 3 3 4 5 6 6 6 9 11 13 12 11 12 12 13 13 13 12 11 9 11 11 10 8 14 16 12 10 9 10 12 11 11 12 13 13 13 14 14 14 14 13 13 14 15
19 20 19 19 20 20 20 20 19 18 16 15 15 14 13 12 10 9 8 7 7 5 5 5 4 5 5 4 5 4 3 4 4 4 3 4 4 4 4 4 4 5 6 7 8 6 5 6 8 11 12 12 13 13 13 14 14 12 12 10 10 11 8 5 7 14 14 12 10 11 12 13 11 11 12 14 14 13 13 14 14 14 13 13 14
20 19 19 20 20 20 20 20 19 18 17 16 16 15 14 12 10 9 8 7 7 6 5 5 5 6 6 5 6 5 4 4 4 4 3 3 4 5 5 5 6 7 6 6 7 7 7 7 8 10 11 13 14 13 13 13 12 10 13 11 10 11 8 5 5 7 9 12 13 11 11 13 11 11 11 13 14 14 13 13 14 14 14 13 13
18 17 20 21 20 20 21 21 20 19 17 17 17 15 14 13 11 10 9 8 7 6 6 5 5 6 6 6 6 5 5 5 5 4 4 3 3 4 5 6 6 6 5 5 6 5 6 7 7 9 11 12 13 13 12 12 10 9 12 12 11 12 10 7 7 7 7 8 11 10 9 10 11 11 11 12 12 13 12 12 12 13 13 12 11
20 20 20 20 20 20 20 21 20 19 18 18 18 16 14 13 12 10 9 9 7 6 6 5 5 6 6 5 5 4 4 3 4 5 4 5 4 3 4 5 5 6 5 6 6 6 6 6 6 7 8 9 12 12 11 11 9 7 9 10 9 11 11 9 9 9 8 8 9 9 9 10 11 10 11 12 12 12 12 12 13 13 13 14 12
23 22 20 19 19 19 20 20 20 19 19 19 18 16 15 13 12 10 10 9 7 6 6 6 5 5 5 5 4 4 3 3 4 4 2 4 5 5 4 5 5 6 5 5 5 5 6 6 5 6 5 5 9 11 11 11 9 7 8 8 8 7 8 10 10 10 10 10 11 10 10 11 12 11 11 12 13 14 14 13 13 13 14 16 17
24 21 19 19 19 19 19 19 19 18 18 18 18 16 15 13 12 11 10 9 8 7 6 6 6 6 6 6 4 4 4 4 4 4 3 2 2 5 7 6 5 6 6 6 6 5 6 6 4 5 6 5 7 8 9 11 10 7 7 8 8 8 8 9 10 10 10 11 11 11 11 12 12 12 12 12 12 13 13 13 14 14 15 15 16
22 20 19 19 20 20 19 19 20 20 19 19 18 16 15 14 13 12 11 10 9 7 7 7 6 7 8 6 6 4 2 2 3 2 2 3 2 1 5 7 6 6 7 7 6 6 7 6 4 5 6 6 6 7 8 10 9 5 4 5 6 7 8 10 10 10 11 10 10 11 11 12 12 12 12 12 12 12 12 13 14 15 16 16 15
19 20 20 19 20 20 20 20 20 21 21 20 19 18 18 17 15 12 11 11 10 7 7 7 6 7 8 8 6 5 4 3 3 3 2 2 3 5 2 4 6 6 6 7 6 6 7 6 6 6 6 4 4 4 5 7 7 6 4 4 4 5 6 8 9 10 10 11 11 11 11 12 12 12 12 13 13 14 14 15 15 15 15 15 15
16 17 17 18 20 20 20 21 22 23 23 23 22 21 19 17 15 13 11 11 11 8 6 7 7 9 11 10 8 7 6 5 4 4 3 3 2 3 1 2 4 5 5 6 6 7 8 7 6 6 5 4 2 1 3 4 5 7 7 7 7 8 9 10 10 10 9 10 11 12 12 13 13 13 13 13 13 14 15 16 17 16 16 15 16
18 16 14 15 17 19 21 22 23 25 26 25 23 20 16 15 15 13 11 12 12 11 9 9 10 10 11 11 10 9 8 7 6 6 5 4 4 3 1 2 4 4 4 4 3 3 5 5 5 5 4 3 2 2 4 5 5 6 8 8 9 11 11 13 13 13 12 11 11 11 12 12 13 14 13 14 14 14 14 15 15 16 17 18 19
20 19 18 17 17 21 24 25 24 23 23 22 20 18 16 15 14 12 11 12 14 14 12 12 11 10 10 12 11 10 9 8 7 7 6 5 6 4 1 1 2 2 2 2 1 0 1 1 3 3 2 2 3 4 3 3 5 6 8 8 10 11 12 14 14 15 15 15 14 14 13 13 13 14 13 13 13 14 15 14 14 16 18 19 19
23 22 22 22 20 22 25 28 26 24 22 21 19 17 16 16 15 14 13 13 13 13 13 13 12 11 10 12 12 11 10 8 7 7 6 6 6 3 1 1 2 2 2 1 1 1 1 2 3 3 1 1 3 4 4 5 6 7 8 9 10 11 12 13 14 15 16 17 17 18 17 17 16 15 15 15 13 15 16 15 15 17 18 18 18
26 24 23 23 21 22 24 27 26 24 22 20 18 18 17 16 16 16 16 15 13 13 13 12 12 11 10 10 10 11 10 7 6 6 6 7 6 3 1 3 2 2 2 2 2 2 1 1 1 2 1 2 5 6 8 9 9 8 10 11 12 13 13 13 13 15 16 17 18 18 19 20 21 21 21 19 17 18 18 17 18 19 19 19 18
27 25 24 22 21 22 23 24 24 23 22 20 19 18 16 15 15 15 16 16 14 12 12 13 13 12 10 9 8 8 9 8 6 5 5 7 6 4 1 2 2 1 1 1 2 2 2 2 2 2 1 4 6 7 9 10 10 10 11 13 13 14 15 14 15 16 16 17 20 21 22 23 24 25 26 24 23 22 21 19 19 19 19 17 16
25 24 23 22 22 22 22 23 24 23 22 20 19 17 16 16 15 14 14 14 13 11 12 13 13 12 11 10 9 7 6 6 5 4 3 4 5 3 3 2 1 1 2 2 2 2 3 5 5 2 3 6 8 9 11 11 11 10 11 13 14 15 15 15 16 18 20 21 23 25 27 27 27 29 30 29 29 26 25 23 21 20 20 18 18
23 23 22 22 23 23 23 22 23 23 22 20 19 18 17 16 15 14 13 12 12 11 11 12 12 11 10 10 10 7 5 6 6 5 5 3 3 3 5 4 2 3 4 4 4 3 3 6 7 5 6 8 9 10 11 12 11 11 11 12 13 14 14 13 13 15 18 22 25 26 27 26 27 28 29 31 32 32 31 30 26 22 20 20 20
21 21 21 22 23 23 23 22 21 21 19 18 17 16 14 13 13 13 11 10 9 9 9 9 9 8 6 5 5 4 3 4 7 8 7 6 4 5 6 5 4 5 6 5 5 5 4 4 5 6 7 8 9 10 12 13 14 15 14 14 13 13 14 15 15 16 16 18 22 24 24 23 22 23 24 25 28 31 33 34 32 27 23 21 21
19 20 21 21 22 22 21 20 19 18 16 16 15 13 11 10 10 9 8 7 6 5 5 6 6 5 3 2 1 2 2 3 6 9 9 7 5 4 4 3 4 6 7 7 7 6 4 2 3 5 8 10 11 13 15 17 19 19 19 18 18 19 21 23 24 24 22 21 21 23 25 25 25 24 23 22 23 26 29 31 32 31 29 26 22
16 18 19 20 20 20 19 18 17 15 12 13 14 12 10 9 9 8 7 6 6 5 5 5 5 4 5 4 4 5 5 3 5 8 8 8 7 5 3 4 6 6 7 7 7 7 6 6 8 11 14 15 17 19 20 21 21 22 22 22 22 23 24 25 25 24 22 21 21 22 24 25 26 26 24 24 24 25 25 28 29 29 30 31 29
13 14 15 16 17 17 17 17 15 12 11 11 11 11 9 9 8 7 6 5 5 5 4 4 4 3 3 3 4 6 6 4 6 9 8 8 8 7 7 6 6 6 6 7 8 8 8 8 12 16 19 20 22 23 23 22 22 23 23 23 24 24 24 26 26 24 21 20 21 22 23 24 25 26 25 25 25 25 25 27 28 27 28 30 31
12 13 13 13 13 13 14 14 12 10 10 9 9 9 8 7 7 6 5 4 4 4 4 3 3 3 3 4 5 6 4 2 4 9 10 10 9 10 10 8 7 6 6 6 6 7 8 9 14 18 19 20 21 21 21 22 21 21 21 21 22 23 23 25 26 25 23 21 21 22 23 24 25 26 27 27 27 26 26 25 24 24 25 24 23
11 11 11 11 11 11 11 11 10 9 9 8 8 8 7 7 7 6 5 5 4 4 4 3 3 3 3 3 4 4 4 2 2 7 11 11 11 12 12 11 10 9 7 5 4 7 10 12 16 18 18 18 18 18 19 18 18 18 17 17 17 19 21 23 24 23 21 20 20 21 22 23 23 24 26 26 26 26 27 26 22 20 18 17 17
10 10 10 10 10 10 9 9 9 8 8 8 8 8 8 8 7 6 6 5 4 4 4 3 3 3 2 2 2 2 2 3 4 6 9 10 10 11 11 11 10 10 9 6 6 9 12 16 18 19 16 14 14 14 15 15 15 16 16 14 14 16 18 18 18 17 17 18 19 20 20 20 21 21 23 23 24 25 24 20 17 16 16 15 15
10 10 10 10 10 10 9 8 8 8 8 8 8 8 8 8 8 8 8 6 4 4 3 3 3 3 2 2 2 2 3 5 6 7 8 8 8 9 9 9 9 9 9 7 7 9 13 16 18 16 14 12 13 13 14 14 14 14 14 13 13 15 16 17 17 17 18 18 18 19 20 21 21 21 21 21 22 21 17 14 15 15 14 13 11
10 10 10 10 9 9 9 8 8 8 8 9 10 10 9 8 9 10 10 9 7 6 5 5 5 5 4 4 3 1 4 9 10 10 10 10 10 9 7 7 7 7 7 8 10 12 14 15 14 12 11 11 11 11 12 12 11 11 12 11 12 13 14 16 18 19 20 20 19 19 19 20 20 20 20 21 21 20 18 18 18 14 10 9 8
10 11 10 10 9 9 9 9 8 7 7 8 10 11 10 10 9 9 9 8 6 6 7 7 7 7 6 7 6 4 6 10 11 10 10 10 10 9 7 7 7 7 8 10 12 14 13 11 10 10 9 9 9 9 9 10 10 11 12 12 13 13 14 15 16 17 17 18 18 18 17 17 18 19 20 21 20 17 15 13 12 10 8 9 8
8 10 11 11 10 9 8 8 8 7 6 5 6 8 9 10 11 10 9 8 6 5 5 6 6 6 6 7 8 7 8 9 9 9 9 9 9 8 8 7 7 8 10 11 12 12 11 9 9 9 9 9 10 10 11 12 12 13 13 14 14 15 15 16 16 16 17 17 17 17 16 16 17 18 19 20 19 13 7 7 7 7 8 8 7
7 8 9 9 10 9 8 8 8 7 6 5 3 4 7 8 11 13 12 11 10 9 8 8 7 6 6 7 8 7 7 8 9 9 9 9 9 8 7 7 8 10 11 10 8 8 8 8 8 9 9 10 11 11 12 13 13 14 14 15 15 15 16 16 17 17 18 18 18 18 17 16 16 17 17 19 19 14 8 9 10 10 12 11 10
6 7 6 6 6 6 6 7 7 7 6 6 5 2 3 7 9 11 11 10 10 10 11 10 9 8 8 7 7 6 7 8 9 9 9 9 9 7 6 7 9 11 12 9 6 5 7 8 9 10 10 11 11 11 12 13 13 14 14 15 15 16 16 17 19 19 18 18 18 18 17 16 17 18 18 18 18 16 13 14 13 13 14 15 14
6 7 8 8 5 4 5 6 6 6 6 5 5 5 3 3 5 6 6 6 7 8 9 10 9 10 11 10 8 7 8 9 10 10 10 10 8 6 6 6 5 8 11 8 6 7 9 9 10 10 11 11 12 12 12 13 13 13 14 14 15 16 16 18 19 19 18 17 17 17 17 17 16 17 18 17 16 16 16 15 15 15 15 15 15
5 6 8 9 7 4 5 6 6 6 6 5 4 4 5 5 3 2 5 5 4 3 4 5 7 9 10 10 10 8 9 10 11 11 11 10 7 6 8 7 4 3 6 7 7 8 10 10 10 11 11 11 12 13 13 13 14 14 14 14 15 16 17 17 17 17 16 16 16 16 17 18 18 16 16 16 16 15 13 12 14 16 16 15 16
4 4 5 8 7 5 5 6 6 6 5 5 5 4 4 4 3 3 2 1 3 5 7 6 5 8 8 9 10 8 7 9 11 11 11 9 7 7 10 8 4 3 5 7 7 9 10 10 10 11 11 11 12 12 12 13 13 13 14 15 15 15 15 14 14 15 16 16 15 15 17 19 19 17 16 17 16 12 9 8 9 12 14 15 15
4 4 4 5 6 6 6 5 7 8 6 4 4 4 3 3 3 3 3 3 4 2 4 6 3 4 6 10 13 10 7 8 10 10 10 9 8 8 10 9 7 7 7 8 8 9 9 9 10 10 10 10 11 12 12 12 12 12 13 14 13 13 13 12 12 14 15 14 13 13 15 16 16 14 12 10 8 6 7 7 8 11 13 14 13
4 4 5 5 6 7 6 4 5 7 5 3 3 3 2 3 3 3 2 2 4 6 3 2 1 0 2 7 13 11 6 6 7 9 10 10 9 9 8 7 7 7 7 8 8 8 8 9 9 10 10 10 10 11 11 12 11 11 12 12 11 11 12 11 11 11 12 11 10 10 10 11 9 5 1 4 6 7 8 10 11 12 11 10 10
2 3 6 7 8 8 7 4 3 2 3 4 3 3 3 3 2 3 3 1 1 3 3 3 3 3 3 7 10 9 7 5 5 7 9 9 8 8 7 6 6 6 6 7 8 8 9 9 10 10 10 10 11 11 11 11 11 11 11 11 11 11 12 11 10 10 9 8 8 9 10 11 11 10 10 12 13 12 11 11 12 12 10 8 7
3 1 3 5 5 7 6 5 3 4 5 3 2 2 3 3 3 3 3 1 1 2 3 3 3 4 6 8 9 8 7 5 4 6 6 6 6 6 5 5 5 6 6 7 8 8 9 10 10 10 10 10 11 11 11 11 11 11 11 11 11 11 11 10 9 9 8 7 9 13 15 15 14 14 15 16 15 14 13 11 10 10 8 7 6
4 4 1 3 4 5 5 4 4 4 3 3 2 2 2 3 4 4 3 2 1 1 2 2 2 4 7 7 5 5 5 4 4 4 4 4 5 6 6 6 7 7 7 8 9 9 10 10 10 11 10 10 11 11 11 11 11 11 11 10 10 10 11 10 9 9 8 8 10 14 16 16 14 15 15 16 15 14 12 11 10 8 7 7 6
5 3 2 1 3 3 3 4 3 3 4 4 3 1 1 2 4 5 3 1 0 1 1 1 1 5 7 6 2 2 4 3 4 5 5 5 6 7 7 7 7 7 8 9 9 9 10 10 11 11 10 10 10 11 11 11 11 11 10 10 9 9 9 9 9 9 9 9 11 14 16 15 14 14 14 13 13 12 11 10 9 8 8 8 7
5 4 4 3 3 4 4 4 3 3 3 4 3 2 1 1 2 3 2 1 1 1 0 0 2 5 8 7 5 4 4 5 5 6 7 6 7 7 7 7 7 8 8 8 8 8 9 10 10 10 10 10 10 10 11 11 11 10 10 10 10 10 9 8 9 9 9 11 12 14 14 13 13 12 12 11 10 10 10 9 8 7 6 6 4
5 5 4 4 5 5 4 4 5 3 1 2 1 1 2 2 1 1 1 1 1 1 1 1 1 3 6 8 8 7 7 7 7 7 7 7 7 7 6 6 6 6 7 8 7 7 7 8 9 9 9 9 8 8 8 10 10 10 9 9 10 10 9 8 8 8 9 9 10 10 10 11 11 11 10 9 9 9 9 9 8 7 6 5 3
5 5 4 4 5 4 4 5 6 3 5 5 1 1 2 2 1 1 1 2 1 1 1 2 3 3 5 7 8 8 8 8 7 8 7 7 7 6 6 6 6 6 7 7 7 7 7 7 8 8 8 8 7 7 7 8 9 9 9 8 9 9 8 8 8 8 8 8 8 8 8 8 8 7 7 7 6 6 7 7 7 6 6 5 5
5 5 4 4 5 5 5 5 2 2 5 2 2 2 2 2 1 1 1 1 1 1 2 3 3 4 5 5 6 7 7 7 7 7 7 7 6 6 6 6 7 7 7 7 7 7 7 6 6 7 7 7 7 7 7 8 8 9 8 8 8 7 7 7 7 7 7 8 8 7 7 7 6 6 5 6 6 6 6 6 6 6 6 6 6
5 5 4 5 5 5 5 4 1 3 2 1 2 2 1 1 1 1 1 1 0 1 2 3 3 3 4 4 4 5 5 5 5 6 6 6 6 6 6 6 7 7 7 7 7 8 7 6 6 6 7 7 7 8 8 8 8 8 7 7 6 5 5 6 6 6 7 8 8 8 7 7 7 6 6 6 7 7 7 6 6 6 6 6 6
5 5 5 5 5 5 5 4 1 1 0 1 2 2 2 1 1 1 1 1 0 1 2 2 2 2 2 2 2 3 3 3 4 4 4 5 5 5 5 5 6 6 6 6 7 7 7 7 7 6 7 7 7 7 7 6 7 7 6 6 4 4 5 6 6 6 6 7 8 8 8 7 7 7 8 8 8 7 7 8 8 7 7 7 7
6 6 5 5 5 5 4 2 3 2 1 2 2 2 3 2 2 2 3 2 2 2 2 3 2 2 2 2 2 2 2 2 2 2 3 3 4 4 4 5 5 5 5 6 6 7 7 7 7 7 7 6 6 6 6 6 6 5 5 4 4 4 5 6 6 5 5 6 7 8 8 8 8 8 9 10 9 9 9 9 9 8 7 7 7
7 7 6 5 6 6 5 3 2 2 1 2 3 3 3 3 3 3 3 4 3 3 3 3 3 3 2 2 2 2 2 1 1 2 2 2 3 3 4 5 5 5 5 5 5 6 6 6 7 7 6 6 7 7 5 4 4 4 3 2 3 3 3 5 6 6 6 6 7 7 8 8 8 7 9 10 10 9 9 8 8 8 8 7 7
7 7 6 6 6 6 5 5 4 3 2 3 3 3 4 4 4 4 5 5 4 4 4 3 3 3 2 2 1 1 1 1 1 1 1 2 2 2 3 4 4 5 5 5 5 5 5 6 6 7 6 6 7 7 6 5 4 4 3 3 3 3 3 4 5 6 6 6 6 6 7 7 7 7 7 8 8 8 8 7 8 8 7 7 7
6 6 6 6 7 7 6 6 5 4 3 4 4 4 4 4 5 5 6 5 5 4 4 3 3 3 2 2 1 1 1 0 0 0 1 1 1 1 2 3 3 4 4 4 4 5 5 5 6 6 6 6 6 6 6 5 5 4 4 4 4 4 4 5 6 6 6 6 6 5 5 6 6 7 6 7 7 7 7 6 7 7 6 7 7
Wind_Direction
188 184 177 169 165 165 163 157 156 159 154 150 146 144 144 140 137 135 133 134 139 145 152 151 157 169 175 183 198 204 206 215 222 221 226 219 200 201 213 212 206 196 185 181 185 190 187 188 192 186 177 181 181 174 169 166 181 204 201 166 165 182 186 167 147 145 154 163 167 161 164 172 176 179 177 177 188 193 189 199 212 218 220 219 224
191 185 178 172 168 166 161 155 155 156 154 152 150 148 148 144 141 139 137 139 146 152 154 152 162 172 172 177 189 199 200 205 218 218 216 214 200 201 211 216 211 189 176 184 191 187 183 186 186 179 178 179 178 176 168 169 187 190 177 170 166 180 201 176 148 150 158 168 184 173 167 181 188 185 186 183 185 195 198 202 210 214 216 218 226
197 188 179 172 169 166 161 159 160 159 158 157 155 154 152 148 146 145 143 148 151 151 152 161 172 167 159 157 153 160 171 170 179 186 187 189 194 197 192 194 192 177 176 181 182 179 177 183 181 173 171 173 181 183 171 178 196 182 168 176 166 176 218 201 150 154 165 172 190 187 172 187 206 195 191 192 190 196 204 208 210 211 214 218 224
204 189 177 170 170 168 164 164 164 161 161 161 158 156 153 151 153 153 152 153 151 148 151 159 167 159 150 145 140 141 149 152 155 162 168 173 177 177 171 170 168 167 175 173 167 162 166 185 185 173 170 176 187 189 177 191 206 179 164 180 172 174 215 238 161 160 167 172 191 203 182 180 209 214 198 197 198 201 209 214 216 217 219 223 227
209 186 172 172 174 173 170 167 165 161 162 163 160 158 157 155 155 156 157 154 149 149 153 159 165 159 157 159 153 147 151 156 153 153 165 166 166 170 162 157 163 168 175 173 160 153 160 179 185 180 179 181 188 191 184 198 211 180 169 183 180 175 193 223 204 183 181 178 182 203 201 181 195 219 213 204 201 204 215 221 223 224 224 227 230
209 189 176 178 176 174 172 168 165 162 162 161 160 160 158 155 155 156 156 153 151 153 157 162 166 163 169 176 169 156 156 161 160 162 175 171 164 163 152 153 167 170 175 173 160 158 167 174 176 183 188 184 185 194 191 198 212 188 179 191 184 173 180 200 216 220 229 208 183 191 212 205 200 208 216 218 212 212 216 220 229 235 234 233 230
201 192 179 177 172 168 168 166 164 162 159 158 159 160 157 153 153 152 150 149 151 156 157 158 166 168 168 168 163 154 156 164 158 159 181 187 183 171 153 158 160 156 170 179 170 174 180 172 171 186 197 189 188 198 196 196 212 203 190 203 198 178 176 194 214 218 225 232 219 207 212 221 219 214 219 223 222 228 230 227 231 235 234 237 235
188 185 172 168 165 162 162 162 160 157 154 155 158 158 154 152 151 146 144 145 149 153 152 155 164 161 153 154 151 131 96 60 96 115 143 182 187 194 186 185 176 162 172 180 173 185 189 180 178 179 181 179 183 195 197 192 205 213 202 210 218 200 189 200 216 222 217 219 228 227 219 218 220 221 230 231 226 229 233 239 246 242 235 235 232
172 169 157 152 152 150 149 149 151 150 149 151 154 153 149 147 146 142 139 139 140 142 145 154 156 146 145 145 125 105 71 55 96 102 54 75 180 205 198 203 207 189 193 196 188 199 197 179 165 160 158 157 161 172 187 190 196 210 209 212 223 224 221 219 219 225 226 222 223 227 226 223 220 220 227 235 241 242 239 243 252 254 253 253 242
156 149 141 136 137 138 138 137 140 141 142 142 141 139 138 137 138 140 138 134 132 132 138 146 150 153 152 126 96 109 115 93 138 154 65 65 27 314 189 199 212 206 208 210 203 204 202 183 164 166 169 168 167 166 174 184 191 199 200 206 219 226 229 232 232 230 232 231 226 225 228 232 232 230 226 229 242 253 252 250 256 262 261 261 259
145 138 134 131 131 132 131 129 130 130 132 131 127 128 132 132 127 127 129 128 126 129 139 144 143 141 134 109 101 136 143 124 166 194 167 131 47 42 106 197 209 208 209 208 202 199 200 195 184 186 186 174 181 191 188 195 208 223 234 227 228 247 256 253 252 247 243 244 241 236 237 240 241 242 239 237 238 239 240 244 252 261 263 261 263
123 120 124 127 127 127 127 126 126 127 130 132 131 131 132 129 122 114 113 120 124 126 134 137 124 109 106 109 124 139 137 135 159 176 182 186 129 86 59 210 199 210 212 208 209 199 194 193 180 180 190 181 167 204 231 235 238 243 254 253 245 253 266 272 274 273 270 268 260 253 253 255 255 250 247 252 255 249 243 244 245 249 257 259 256
110 103 103 109 116 122 124 123 124 128 132 134 134 132 128 129 130 122 111 111 114 116 119 122 117 109 112 127 136 136 140 145 151 161 171 176 166 167 259 234 192 206 213 215 234 208 184 188 179 182 200 205 213 252 262 266 273 273 273 271 264 259 258 262 266 269 276 282 279 269 265 265 264 263 263 265 267 264 256 254 255 254 254 253 254
105 103 100 100 108 121 126 122 119 121 123 124 125 126 126 129 133 133 131 123 115 113 114 115 114 114 125 138 139 135 138 142 148 158 157 157 169 179 298 285 186 189 197 212 266 21 156 196 213 210 196 176 211 234 260 272 280 286 281 272 268 264 260 259 258 257 261 266 269 271 272 272 272 273 273 267 262 264 263 260 262 264 261 261 264
92 96 100 100 104 114 119 118 116 117 119 120 120 122 125 125 124 127 131 130 122 115 113 113 113 113 123 133 134 130 129 132 141 151 153 155 156 148 118 234 215 205 184 192 226 228 251 288 273 268 12 103 213 228 242 257 265 279 282 272 265 262 260 261 261 258 256 256 259 265 267 269 271 270 268 265 256 254 258 260 266 270 268 264 260
81 85 89 93 97 102 106 108 108 112 117 120 120 120 120 121 124 124 121 119 117 113 109 109 108 106 109 114 119 120 119 122 133 141 150 154 135 106 206 219 214 211 183 189 235 226 185 193 280 307 306 258 257 252 247 255 268 281 283 278 274 273 270 267 266 263 258 255 257 261 262 262 263 263 265 265 260 253 251 257 265 267 266 262 257
70 73 77 82 89 95 103 107 106 108 111 111 111 113 110 108 116 124 123 117 110 105 106 109 108 106 103 98 101 111 114 112 119 125 140 152 133 83 340 233 213 240 215 234 270 233 199 236 313 8 312 255 266 272 272 277 286 293 292 288 285 282 279 274 270 265 260 260 262 264 264 262 261 262 262 260 259 256 252 253 256 256 257 264 270
60 62 66 74 81 87 98 106 108 111 113 109 109 112 108 105 107 113 115 111 104 101 106 109 108 108 108 101 89 85 91 91 93 99 105 141 142 89 5 311 262 310 307 302 307 272 258 287 304 311 278 275 279 283 285 288 292 296 300 298 289 283 281 280 277 273 269 270 272 270 269 269 268 265 262 259 257 254 251 250 250 248 248 249 258
57 60 64 72 80 84 87 95 102 107 109 108 110 111 107 107 110 108 103 102 102 103 105 105 104 103 106 106 94 78 62 51 47 45 43 54 107 81 20 355 4 7 339 325 328 320 296 298 296 285 279 280 279 280 284 288 291 292 298 301 293 286 287 289 289 288 282 277 276 272 271 274 274 269 266 263 259 255 253 253 252 252 249 245 249
58 65 69 72 75 77 76 78 85 93 98 102 104 104 101 104 110 107 99 97 104 112 113 110 110 108 105 108 104 85 45 15 9 3 1 4 29 54 35 15 13 8 348 333 322 313 299 286 282 285 287 283 280 286 293 297 298 294 293 295 291 287 290 290 291 295 292 284 280 275 271 271 270 268 268 267 263 259 256 254 251 249 250 251 253
57 62 67 69 71 74 73 70 70 74 81 87 87 86 84 84 87 86 83 86 96 110 112 102 100 95 65 29 12 8 346 321 326 334 338 341 352 32 43 4 342 344 339 331 322 313 314 339 327 299 292 293 295 297 298 300 300 296 292 289 285 283 286 288 288 289 288 285 280 274 268 265 262 260 258 255 256 258 257 255 251 246 246 249 252
55 57 60 63 66 69 71 68 65 61 65 73 75 72 69 69 71 72 76 82 83 84 88 87 81 61 43 39 34 32 41 36 353 345 345 346 350 359 358 324 313 321 327 327 326 319 317 331 323 298 287 290 294 295 297 297 296 293 291 290 289 288 288 289 288 288 285 281 276 270 266 263 260 257 254 249 248 249 250 254 255 251 247 245 244
57 58 59 60 60 62 64 64 62 56 56 65 70 68 64 63 67 69 72 81 91 92 93 103 108 94 76 76 63 53 58 51 19 10 8 5 3 5 4 348 330 323 313 303 308 315 315 313 301 287 284 289 293 295 299 300 298 297 294 291 289 288 287 287 286 285 281 276 273 270 266 263 262 261 259 257 255 251 250 253 255 255 255 250 245
57 58 59 60 59 59 60 60 59 56 54 58 65 68 68 69 70 70 66 68 83 91 83 83 100 109 118 122 100 82 92 101 16 18 24 26 22 18 18 13 1 351 339 320 310 307 298 288 283 285 292 299 301 303 305 305 304 303 300 298 294 289 286 284 283 282 278 273 270 268 265 263 262 260 259 260 259 257 255 252 246 248 255 251 240
57 57 58 59 59 61 63 62 60 57 55 57 60 58 58 65 69 69 67 65 66 74 77 72 67 66 75 94 95 81 86 113 53 27 28 28 21 16 17 16 11 9 8 354 316 300 294 289 289 295 302 307 308 309 309 310 311 310 307 306 300 290 285 282 280 277 272 267 266 266 267 266 264 262 262 262 260 260 260 256 246 242 242 229 215
61 61 61 60 57 56 58 58 58 59 59 62 61 55 52 57 61 60 62 64 64 65 67 73 84 93 90 87 97 101 107 127 109 61 39 26 14 9 9 7 4 5 5 356 335 324 316 308 306 308 311 310 309 308 308 307 304 302 302 299 289 281 277 273 269 267 267 269 271 273 276 277 276 274 272 268 264 264 264 256 239 226 218 210 211
55 57 59 60 59 57 55 53 55 56 55 57 60 59 57 56 56 51 42 35 42 61 67 68 72 79 90 87 91 143 136 107 81 51 30 15 3 359 357 354 353 355 355 346 330 320 312 307 309 311 309 304 300 296 295 292 286 287 294 291 282 277 271 263 266 275 279 280 282 284 287 290 290 286 281 276 272 268 262 246 229 222 211 206 210
47 48 50 51 52 52 48 48 55 58 57 56 51 47 44 47 53 49 35 21 19 27 37 50 51 39 34 38 31 52 84 65 40 15 1 355 349 346 345 344 343 339 328 313 308 311 311 309 309 309 302 299 300 298 296 295 292 296 305 303 295 290 283 277 281 285 283 279 280 286 291 295 296 294 289 284 279 274 266 252 242 232 209 193 196
45 45 43 42 42 42 42 43 46 55 67 71 65 55 47 46 51 48 35 29 34 31 28 36 36 23 20 30 28 25 40 34 16 2 359 355 349 349 347 336 328 323 314 309 315 322 323 314 309 312 312 310 313 316 316 316 314 312 314 315 310 306 302 299 299 298 295 293 294 298 299 297 296 298 296 291 286 282 272 255 238 225 210 204 205
40 42 39 33 26 26 35 39 35 36 49 66 84 88 77 62 56 53 41 32 36 41 38 39 39 33 32 34 29 21 18 13 5 5 10 5 360 2 359 349 345 341 334 329 329 328 324 315 312 319 323 320 322 326 325 323 320 316 316 316 313 311 311 310 307 306 308 308 305 303 303 302 298 294 291 291 294 293 269 226 207 199 200 196 184
25 34 37 31 19 15 24 30 26 27 30 25 42 109 112 89 67 58 53 45 40 39 38 42 50 53 49 39 25 10 5 6 8 11 12 10 10 11 8 13 19 11 2 357 346 327 316 318 322 325 325 324 326 325 322 320 317 315 315 314 313 313 313 311 311 312 312 312 309 306 306 307 303 296 290 288 291 290 259 225 213 199 190 182 165
15 16 21 27 27 25 28 27 21 19 21 20 13 22 127 122 92 67 57 51 49 48 43 38 36 29 23 26 24 11 3 7 15 18 15 14 19 24 28 37 37 27 20 16 359 337 335 334 333 331 328 326 324 321 320 321 318 316 315 314 314 314 312 310 314 316 315 314 315 312 310 309 304 298 295 288 280 270 252 233 219 201 187 177 163
16 12 6 2 5 19 23 22 22 17 15 20 16 5 18 91 101 95 87 68 55 52 47 40 34 21 8 3 5 8 7 9 14 17 16 19 26 26 16 11 19 26 25 13 343 338 346 342 333 331 328 326 325 323 322 320 317 314 314 313 313 312 309 310 316 319 319 321 321 316 315 314 306 296 292 285 271 258 245 228 208 190 178 170 164
17 24 10 354 345 357 12 10 13 16 12 13 19 18 19 21 26 95 135 142 145 127 91 59 42 31 15 359 354 0 6 9 12 13 13 19 30 16 350 333 313 352 10 353 333 338 345 338 332 332 330 328 328 327 323 320 319 318 316 314 312 310 311 316 322 325 326 326 323 318 315 312 306 298 289 279 267 251 231 210 195 186 175 163 159
6 27 18 357 346 355 7 4 5 10 9 8 13 17 25 24 7 6 57 150 199 181 159 140 63 37 33 18 7 6 10 12 12 10 10 21 35 20 2 353 342 340 343 337 338 346 345 338 335 335 333 331 331 329 326 325 324 323 321 319 317 316 321 330 333 332 328 321 315 314 311 304 300 296 286 274 263 242 206 181 179 176 164 153 148
337 335 345 344 342 351 358 357 360 3 1 3 14 15 12 12 7 1 12 359 328 322 148 141 93 56 63 35 17 15 21 21 18 16 18 27 31 18 8 7 8 3 354 352 356 353 345 342 343 339 335 333 331 330 331 330 326 324 323 322 321 325 335 341 339 335 332 328 326 327 323 315 306 294 277 261 246 211 168 148 144 147 147 145 138
328 345 354 347 335 340 344 346 359 7 359 339 353 359 344 357 6 351 350 2 336 331 348 60 28 168 103 26 12 6 359 5 20 24 22 22 19 11 8 8 6 1 357 358 0 353 345 348 348 342 339 338 335 335 337 334 330 329 329 329 332 340 344 345 344 344 343 343 349 355 356 356 354 335 235 135 111 105 110 114 117 122 128 133 135
297 345 355 346 329 323 321 312 313 317 277 277 324 346 332 341 356 327 317 18 10 324 327 347 344 330 342 356 356 348 335 338 6 17 14 13 11 10 13 14 9 5 359 359 0 356 352 354 353 348 346 345 342 342 342 340 339 342 343 344 348 354 354 352 355 359 358 1 19 36 41 44 49 62 81 86 80 77 83 94 101 101 95 92 106
232 241 352 352 321 307 318 327 304 261 249 262 321 339 315 323 335 313 306 354 25 337 327 327 337 355 355 346 342 342 348 6 19 8 6 13 13 11 17 17 11 10 6 3 5 3 359 359 358 355 355 354 352 351 352 352 352 355 356 358 2 6 8 9 10 12 16 33 55 62 61 62 66 72 74 73 70 70 72 75 80 80 69 59 70
214 186 123 17 324 294 297 310 300 280 274 283 289 279 286 322 333 324 326 354 0 320 323 322 346 18 5 351 346 351 359 23 39 16 12 20 16 16 24 21 13 11 10 6 7 7 5 5 4 3 3 3 2 2 3 5 7 8 9 12 17 22 25 26 28 30 35 44 56 61 62 64 70 74 74 73 73 73 68 60 57 59 58 60 66
241 222 213 287 311 290 266 267 286 310 313 300 294 311 27 8 332 325 339 7 301 228 326 339 78 51 22 13 41 32 354 4 37 31 26 29 24 22 26 21 12 12 11 9 8 9 10 10 10 9 8 7 8 10 13 14 16 18 20 23 28 35 40 43 43 46 49 47 51 58 63 65 68 69 66 66 69 69 66 59 54 56 65 70 64
257 269 259 247 266 283 285 284 279 266 266 276 291 316 354 319 315 323 342 355 220 180 100 102 118 80 47 40 60 56 25 30 43 36 31 32 29 25 23 18 14 15 14 12 12 11 12 15 15 14 12 10 10 14 18 19 22 26 29 34 37 41 49 54 52 52 54 49 49 56 62 63 61 56 52 54 58 59 59 59 57 58 67 72 67
247 260 268 275 285 294 309 305 282 260 285 2 3 309 286 287 301 299 238 193 197 162 110 54 77 73 51 42 46 49 45 45 42 37 36 36 31 27 22 18 19 22 21 19 16 11 14 20 20 18 16 14 15 17 18 21 26 32 38 46 48 47 50 51 49 50 50 45 45 52 57 56 54 51 51 57 63 62 58 54 50 54 62 63 57
250 254 261 279 287 289 291 283 277 318 23 25 40 219 275 294 289 244 189 175 166 120 79 54 42 44 42 39 42 46 49 48 46 46 49 45 39 35 31 27 29 30 28 26 22 17 19 22 19 17 18 20 21 22 23 28 35 40 46 52 55 56 54 49 46 45 44 42 45 50 51 49 49 47 46 50 56 63 65 58 52 56 61 58 52
259 256 258 278 287 285 281 272 257 60 41 16 206 204 279 292 252 160 172 175 142 60 61 56 45 41 44 44 46 49 53 55 56 56 57 54 49 45 42 40 39 38 36 35 28 22 22 25 22 19 23 26 26 31 37 42 44 47 50 50 50 50 47 44 44 43 37 35 40 43 42 42 44 42 36 33 36 49 60 60 57 59 58 54 55
265 255 262 284 288 285 292 302 5 80 53 286 220 223 290 292 192 159 166 166 69 66 77 71 58 54 56 55 58 62 64 67 66 64 64 62 56 50 47 46 43 40 41 42 34 25 27 34 33 25 24 28 30 34 40 43 44 46 49 47 46 51 51 47 44 40 34 31 30 32 37 44 46 42 36 33 37 47 52 51 51 56 54 50 51
258 250 262 280 284 286 293 297 269 145 236 274 262 263 273 264 214 188 165 143 158 141 113 96 87 89 87 84 86 85 80 76 74 69 64 58 51 43 38 36 36 38 41 43 39 33 33 38 39 32 27 30 33 33 33 36 38 39 40 42 53 76 81 67 47 35 36 36 31 26 29 36 38 36 34 33 38 49 53 48 48 51 52 52 51
241 241 250 262 270 278 277 231 160 145 195 250 247 251 250 240 218 196 183 180 185 174 147 134 136 133 124 120 117 107 98 92 81 70 60 50 45 41 38 36 37 39 40 40 40 37 34 37 40 37 31 31 32 27 24 28 31 32 37 50 62 72 78 74 64 55 51 45 34 29 33 38 40 42 39 36 39 46 48 43 44 45 46 52 53
239 240 244 251 262 272 271 248 211 185 192 213 221 228 233 228 209 194 196 198 191 182 173 165 158 154 150 146 138 126 120 104 73 57 51 41 38 43 46 44 43 44 42 39 38 35 30 29 34 35 32 31 31 25 21 26 33 32 35 51 51 43 57 79 83 76 62 48 37 35 40 43 44 47 46 41 40 44 44 39 38 40 40 45 48
247 242 239 244 252 257 261 262 254 220 180 201 226 227 224 221 208 199 204 209 201 193 188 180 171 168 168 165 160 158 152 127 85 71 52 35 33 40 41 38 40 43 41 38 36 36 32 30 32 33 33 35 36 31 24 25 32 33 30 37 47 48 61 83 91 88 76 61 47 40 43 43 39 40 42 37 33 35 37 29 23 27 34 39 40
251 239 234 242 249 249 250 253 249 226 196 203 222 227 225 221 211 202 203 208 207 200 192 185 180 177 177 180 194 207 218 234 286 309 348 4 7 13 20 26 33 35 35 35 34 34 34 36 38 39 38 39 43 44 41 42 51 57 59 62 67 72 80 90 94 90 79 62 44 35 38 40 33 29 27 21 17 25 33 25 13 13 25 34 37